Weather History for New Richmond, WI

Change the Weather History Date:

Monday, December 17, 2012

  Actual Average (KMSP) Record (KMSP)
Temperature  
Mean Temperature 20 °F 19 °F  
Max Temperature 21 °F 26 °F 53 °F (1939)
Min Temperature 19 °F 12 °F -17 °F (1985)
Degree Days  
Heating Degree Days 45 46  
Month to date heating degree days 736  
Since 1 July heating degree days 2355  
Cooling Degree Days 0 0  
Month to date cooling degree days 0  
Year to date cooling degree days 753  
Moisture  
Dew Point 20 °F    
Average Humidity 96    
Maximum Humidity 100    
Minimum Humidity 93    
Precipitation  
Precipitation 0.00 in 0.03 in 0.81 in (1908)
Month to date precipitation 0.67  
Year to date precipitation 30.12  
Snow  
Snow 0.00 in 0.40 in 10.80 in (1908)
Month to date snowfall 6.9  
Since 1 July snowfall 16.8  
Snow Depth -    
Sea Level Pressure  
Sea Level Pressure 29.74 in    
Wind  
Wind Speed 4 mph (NNW)    
Max Wind Speed 10 mph    
Max Gust Speed -    
Visibility 10 miles    
Events      
T = Trace of Precipitation, MM = Missing Value Source: NWS Daily Summary

Daily Weather History Graph

Daily Weather History Graph

Search for Another Location

Airport:

Trip Planner

Search our weather history database for the weather conditions in past years. The results will help you decide how hot, cold, wet, or windy it might be!

Date:

Astronomy

Dec. 17, 2012 Rise Set
Actual Time 7:43 AM CST 4:29 PM CST
Civil Twilight 7:09 AM CST 5:03 PM CST
Nautical Twilight 6:32 AM CST 5:40 PM CST
Astronomical Twilight 5:56 AM CST 6:16 PM CST
Moon 10:41 AM CST (12/17) 10:04 PM CST (12/17)
Length of Visible Light 9h 53m
Length of Day
8h 45m
Waxing Crescent, 25% of the Moon is Illuminated
Dec 17
Waxing Crescent
Dec 19
First Quarter
Dec 28
Full
Jan 4
Last Quarter
Jan 11
New

Hourly Weather History & Observations

Time (CST) Temp. Windchill Dew Point Humidity Pressure Visibility Wind Dir Wind Speed Gust Speed Precip Events Conditions
12:15 AM 21.2 °F 13.6 °F 21.2 °F 100% 29.78 in 10.0 mi West 5.8 mph - N/A   Overcast
12:35 AM 21.2 °F 13.6 °F 21.2 °F 100% 29.78 in 10.0 mi WNW 5.8 mph - N/A   Overcast
12:55 AM 21.2 °F 12.6 °F 21.2 °F 100% 29.78 in 10.0 mi WNW 6.9 mph - N/A   Overcast
1:15 AM 21.2 °F 12.6 °F 19.4 °F 93% 29.78 in 10.0 mi NW 6.9 mph - N/A   Overcast
1:35 AM 21.2 °F 10.9 °F 19.4 °F 93% 29.77 in 10.0 mi NNW 9.2 mph - N/A   Overcast
1:55 AM 21.2 °F 10.1 °F 19.4 °F 93% 29.77 in 10.0 mi NW 10.4 mph - N/A   Overcast
2:15 AM 21.2 °F 10.1 °F 19.4 °F 93% 29.78 in 10.0 mi NNW 10.4 mph - N/A   Overcast
2:35 AM 21.2 °F 10.9 °F 19.4 °F 93% 29.78 in 10.0 mi NNW 9.2 mph - N/A   Overcast
3:15 AM 21.2 °F 13.6 °F 19.4 °F 93% 29.77 in 10.0 mi NNW 5.8 mph - N/A   Overcast
3:35 AM 21.2 °F 12.6 °F 19.4 °F 93% 29.76 in 10.0 mi North 6.9 mph - N/A   Overcast
3:55 AM 19.4 °F 11.5 °F 19.4 °F 100% 29.77 in 10.0 mi North 5.8 mph - N/A   Overcast
4:15 AM 19.4 °F 11.5 °F 19.4 °F 100% 29.77 in 10.0 mi WNW 5.8 mph - N/A   Overcast
4:35 AM 19.4 °F 10.4 °F 19.4 °F 100% 29.77 in 10.0 mi WNW 6.9 mph - N/A   Overcast
4:55 AM 19.4 °F 11.5 °F 19.4 °F 100% 29.77 in 10.0 mi NNW 5.8 mph - N/A   Overcast
5:15 AM 19.4 °F 12.8 °F 19.4 °F 100% 29.77 in 10.0 mi NW 4.6 mph - N/A   Overcast
5:35 AM 19.4 °F 10.4 °F 19.4 °F 100% 29.77 in 10.0 mi WNW 6.9 mph - N/A   Overcast
5:55 AM 19.4 °F 9.5 °F 19.4 °F 100% 29.77 in 10.0 mi North 8.1 mph - N/A   Overcast
6:15 AM 19.4 °F 14.3 °F 19.4 °F 100% 29.77 in 10.0 mi NW 3.5 mph - N/A   Overcast
6:35 AM 19.4 °F 12.8 °F 19.4 °F 100% 29.76 in 10.0 mi North 4.6 mph - N/A   Overcast
6:55 AM 19.4 °F 10.4 °F 19.4 °F 100% 29.77 in 10.0 mi North 6.9 mph - N/A   Overcast
7:15 AM 19.4 °F - 19.4 °F 100% 29.77 in 10.0 mi Calm Calm - N/A   Overcast
7:35 AM 19.4 °F - 19.4 °F 100% 29.76 in 10.0 mi Calm Calm - N/A   Overcast
7:55 AM 19.4 °F - 19.4 °F 100% 29.77 in 10.0 mi Calm Calm - N/A   Overcast
8:15 AM 19.4 °F - 19.4 °F 100% 29.77 in 10.0 mi Calm Calm - N/A   Overcast
8:35 AM 19.4 °F - 19.4 °F 100% 29.77 in 10.0 mi Calm Calm - N/A   Overcast
8:55 AM 19.4 °F 12.8 °F 19.4 °F 100% 29.77 in 10.0 mi ESE 4.6 mph - N/A   Overcast
9:15 AM 19.4 °F - 19.4 °F 100% 29.77 in 10.0 mi Calm Calm - N/A   Overcast
9:35 AM 19.4 °F - 19.4 °F 100% 29.77 in 10.0 mi Calm Calm - N/A   Overcast
9:55 AM 19.4 °F - 19.4 °F 100% 29.77 in 10.0 mi Calm Calm - N/A   Overcast
10:15 AM 19.4 °F - 19.4 °F 100% 29.77 in 10.0 mi Calm Calm - N/A   Overcast
10:35 AM 21.2 °F - 19.4 °F 93% 29.77 in 10.0 mi Calm Calm - N/A   Overcast
10:55 AM 21.2 °F - 19.4 °F 93% 29.76 in 10.0 mi Calm Calm - N/A   Overcast
11:15 AM 21.2 °F - 19.4 °F 93% 29.75 in 7.0 mi Calm Calm - N/A   Overcast
11:35 AM 21.2 °F - 19.4 °F 93% 29.74 in 10.0 mi Calm Calm - N/A   Overcast
11:55 AM 21.2 °F - 19.4 °F 93% 29.74 in 10.0 mi Calm Calm - N/A   Overcast
12:15 PM 21.2 °F - 19.4 °F 93% 29.73 in 10.0 mi Calm Calm - N/A   Overcast
12:35 PM 21.2 °F 16.4 °F 19.4 °F 93% 29.72 in 10.0 mi ENE 3.5 mph - N/A   Overcast
12:55 PM 21.2 °F - 19.4 °F 93% 29.72 in 10.0 mi Calm Calm - N/A   Overcast
1:15 PM 21.2 °F - 19.4 °F 93% 29.72 in 10.0 mi Calm Calm - N/A   Overcast
1:35 PM 21.2 °F - 19.4 °F 93% 29.72 in 10.0 mi Calm Calm - N/A   Overcast
1:55 PM 21.2 °F - 19.4 °F 93% 29.71 in 10.0 mi Calm Calm - N/A   Overcast
2:15 PM 21.2 °F - 19.4 °F 93% 29.70 in 10.0 mi Calm Calm - N/A   Overcast
2:35 PM 21.2 °F - 19.4 °F 93% 29.70 in 10.0 mi Calm Calm - N/A   Overcast
2:55 PM 21.2 °F - 19.4 °F 93% 29.70 in 10.0 mi Calm Calm - N/A   Overcast
3:15 PM 21.2 °F - 19.4 °F 93% 29.70 in 10.0 mi Calm Calm - N/A   Overcast
3:35 PM 21.2 °F - 19.4 °F 93% 29.71 in 10.0 mi Calm Calm - N/A   Overcast
3:55 PM 21.2 °F - 19.4 °F 93% 29.70 in 10.0 mi Calm Calm - N/A   Overcast
6:35 PM 21.2 °F - 19.4 °F 93% 29.72 in 10.0 mi Calm Calm - N/A   Overcast
6:55 PM 21.2 °F - 19.4 °F 93% 29.71 in 10.0 mi Calm Calm - N/A   Overcast
7:15 PM 21.2 °F - 19.4 °F 93% 29.71 in 10.0 mi Calm Calm - N/A   Overcast
7:35 PM 21.2 °F - 19.4 °F 93% 29.71 in 10.0 mi Calm Calm - N/A   Overcast
7:55 PM 21.2 °F - 19.4 °F 93% 29.72 in 10.0 mi Calm Calm - N/A   Overcast
8:15 PM 21.2 °F - 19.4 °F 93% 29.72 in 10.0 mi Calm Calm - N/A   Overcast
8:35 PM 21.2 °F 16.4 °F 19.4 °F 93% 29.72 in 10.0 mi East 3.5 mph - N/A   Overcast
8:55 PM 21.2 °F 16.4 °F 19.4 °F 93% 29.71 in 10.0 mi East 3.5 mph - N/A   Overcast
9:15 PM 21.2 °F - 19.4 °F 93% 29.72 in 10.0 mi Calm Calm - N/A   Overcast
9:35 PM 21.2 °F - 19.4 °F 93% 29.71 in 10.0 mi Calm Calm - N/A   Overcast
9:55 PM 21.2 °F 16.4 °F 21.2 °F 100% 29.71 in 10.0 mi East 3.5 mph - N/A   Overcast
10:15 PM 21.2 °F - 19.4 °F 93% 29.71 in 10.0 mi Calm Calm - N/A   Overcast
10:35 PM 21.2 °F - 19.4 °F 93% 29.71 in 10.0 mi Calm Calm - N/A   Overcast
10:55 PM 21.2 °F - 19.4 °F 93% 29.71 in 10.0 mi Calm Calm - N/A   Overcast
11:15 PM 21.2 °F - 19.4 °F 93% 29.71 in 10.0 mi Calm Calm - N/A   Overcast
11:35 PM 21.2 °F - 19.4 °F 93% 29.70 in 10.0 mi Calm Calm - N/A   Overcast
11:55 PM 21.2 °F - 19.4 °F 93% 29.70 in 10.0 mi Calm Calm - N/A   Overcast